Wind_Speed
8 7 7 11 13 6 17 20 12 9 9 13 17 14 17 29 29 28 27 27 27 28 28 28 29 28 31 30 30 30 32 32
10 7 7 5 7 8 9 18 16 20 11 11 10 13 15 20 27 26 25 23 24 27 29 29 28 30 29 28 28 31 33 31
9 10 8 6 3 4 1 4 16 21 17 20 18 16 18 19 27 23 26 27 27 28 30 28 27 28 27 27 27 29 33 31
9 10 8 7 4 1 4 2 1 9 18 23 23 23 24 24 28 26 27 32 28 30 32 26 26 24 24 25 26 29 29 29
9 8 6 5 3 1 2 2 2 2 6 8 9 9 11 20 23 20 21 24 24 25 21 20 23 20 21 24 27 29 27 28
10 8 5 3 3 3 2 2 3 4 6 7 8 9 11 14 14 13 15 14 14 15 17 19 19 19 22 25 28 29 29 31
10 10 8 6 7 7 8 7 6 7 8 10 9 9 11 13 16 17 17 16 17 19 21 21 21 23 25 28 31 31 28 32
9 11 13 10 9 8 8 8 8 7 8 9 9 10 11 11 11 13 13 15 17 20 20 22 25 28 31 31 32 31 31 33
10 10 15 16 13 10 10 10 11 12 13 12 12 12 12 12 10 11 13 14 16 19 20 23 25 28 29 30 28 27 28 32
17 12 15 13 15 15 15 14 14 15 14 15 17 17 16 16 13 14 16 18 20 22 24 25 26 29 29 30 31 33 34 36
18 17 17 17 18 20 21 20 17 16 14 14 14 16 17 17 18 19 20 21 24 26 29 31 32 31 32 35 38 39 39 44
20 20 22 17 16 18 20 21 18 18 19 19 20 20 20 21 22 24 25 28 32 33 36 36 37 37 37 38 41 45 46 49
20 25 23 18 16 20 25 22 20 19 19 20 22 23 26 25 26 28 28 26 26 27 26 32 39 46 36 41 38 33 39 41
23 26 25 25 24 22 24 24 25 26 25 25 28 28 30 30 29 31 31 29 29 30 27 24 22 28 28 31 30 24 27 31
30 29 29 29 25 22 25 30 29 26 24 25 28 27 26 27 29 31 34 33 32 31 29 28 26 24 29 33 30 30 30 31
27 31 31 30 31 29 28 31 34 34 31 26 27 26 26 29 32 34 36 36 34 32 32 31 31 30 31 33 35 34 33 35
30 28 32 36 35 35 36 37 37 36 32 27 31 34 34 36 35 37 34 34 35 35 34 33 35 35 35 36 37 37 37 39
33 30 29 31 35 40 35 33 35 37 37 32 33 35 39 37 34 35 33 33 35 35 37 39 37 41 41 39 38 41 40 43
34 32 31 29 28 33 34 32 34 36 38 37 36 39 36 34 35 36 35 33 33 34 36 36 38 40 42 43 41 43 44 47
Wind_Direction
313 335 354 358 4 232 223 214 235 241 188 191 200 192 208 198 210 215 223 216 221 230 236 243 246 251 257 254 254 245 228 222
300 306 317 356 359 14 272 249 263 252 209 223 216 202 230 230 228 230 235 235 242 237 240 244 250 255 252 252 244 225 219 212
287 296 295 304 328 331 28 273 237 228 237 212 239 239 229 231 219 231 239 244 242 245 247 250 248 247 246 233 221 223 218 218
279 288 300 296 286 285 288 275 91 185 219 238 238 249 250 238 229 243 249 244 244 249 254 248 245 236 229 221 213 217 220 218
281 284 298 311 304 259 229 258 211 161 182 190 208 209 211 217 228 233 234 236 233 234 241 238 228 225 219 216 219 225 226 232
288 273 265 282 273 266 228 237 241 196 200 220 224 210 192 197 208 215 213 208 202 204 215 221 225 231 230 237 242 240 239 241
262 272 254 244 252 262 268 256 235 237 219 202 209 210 208 206 204 211 212 210 212 213 219 225 236 237 242 247 252 253 253 252
246 271 269 245 249 264 258 266 263 246 239 231 209 212 220 221 221 222 225 226 226 226 232 236 236 234 238 243 252 256 260 260
226 251 261 263 253 247 249 263 272 269 261 244 246 240 226 224 225 226 230 238 244 246 244 245 246 247 246 250 253 260 261 261
238 242 244 254 263 250 247 261 273 272 282 268 251 246 246 242 241 242 249 252 258 256 257 259 256 255 250 250 256 265 266 265
236 235 231 251 269 270 258 265 264 260 265 276 270 262 256 255 253 256 261 266 267 272 270 264 261 257 258 263 261 264 265 266
237 241 233 240 254 255 266 269 265 250 257 266 272 275 272 268 271 274 272 274 279 285 269 273 268 257 256 257 259 264 266 270
240 238 235 235 239 257 263 260 258 257 265 268 265 268 273 280 280 281 282 283 284 287 270 277 272 254 264 264 268 271 270 269
235 235 238 240 246 251 256 252 252 256 270 281 269 266 271 276 275 275 280 284 282 285 281 283 279 256 257 244 264 269 276 264
236 235 233 242 240 236 251 256 254 256 269 276 272 266 266 273 281 283 281 278 277 280 280 275 277 270 272 265 273 270 270 260
238 240 239 241 239 236 247 259 259 259 258 275 269 259 270 277 276 282 279 279 275 277 277 275 274 273 266 272 275 269 266 267
240 231 235 233 238 239 252 250 255 261 262 263 258 260 269 284 286 282 281 277 276 277 277 274 272 272 272 272 272 267 274 277
254 246 237 242 243 242 240 249 253 259 265 258 262 268 276 277 276 275 273 274 278 283 282 280 276 273 270 274 275 277 278 281
262 258 252 260 243 237 237 242 248 250 254 257 261 266 268 270 270 271 273 274 279 282 280 278 275 274 275 275 277 276 278 282
Height
5734 5732 5730 5727 5723 5721 5723 5723 5725 5728 5730 5733 5735 5738 5742 5746 5750 5753 5757 5759 5763 5765 5768 5770 5772 5773 5773 5774 5776 5777 5778 5781
5733 5731 5730 5729 5727 5723 5721 5722 5724 5727 5729 5732 5735 5739 5741 5744 5748 5751 5755 5756 5758 5762 5765 5766 5766 5768 5768 5769 5771 5772 5774 5778
5731 5730 5729 5728 5728 5727 5726 5725 5724 5725 5727 5730 5734 5737 5739 5742 5745 5749 5752 5754 5756 5758 5759 5761 5761 5762 5764 5765 5768 5771 5772 5774
5730 5728 5729 5728 5728 5728 5727 5725 5724 5724 5726 5729 5733 5734 5736 5740 5744 5746 5748 5749 5751 5753 5754 5756 5757 5758 5760 5761 5765 5768 5770 5772
5728 5727 5727 5726 5727 5728 5728 5726 5725 5725 5727 5728 5731 5732 5732 5735 5739 5740 5743 5744 5745 5748 5750 5752 5756 5755 5758 5760 5763 5765 5766 5770
5727 5727 5726 5725 5726 5726 5727 5727 5727 5726 5727 5729 5730 5731 5733 5735 5737 5738 5741 5743 5744 5746 5748 5752 5753 5755 5755 5758 5761 5761 5760 5763
5724 5726 5726 5725 5725 5726 5727 5727 5728 5729 5728 5729 5729 5729 5731 5734 5735 5737 5739 5740 5743 5745 5747 5747 5747 5751 5754 5755 5755 5754 5756 5757
5721 5723 5725 5725 5724 5725 5726 5727 5727 5727 5728 5728 5727 5728 5729 5731 5733 5735 5737 5739 5740 5741 5742 5743 5744 5745 5746 5746 5748 5749 5750 5751
5717 5719 5721 5723 5723 5722 5723 5724 5725 5726 5726 5726 5726 5726 5727 5728 5729 5731 5733 5735 5735 5735 5737 5738 5740 5741 5739 5740 5740 5741 5742 5742
5713 5715 5717 5719 5721 5720 5720 5721 5722 5723 5724 5725 5725 5726 5726 5727 5726 5728 5728 5728 5730 5731 5732 5733 5733 5733 5731 5733 5734 5733 5732 5733
5710 5711 5713 5715 5717 5718 5719 5718 5719 5719 5721 5721 5722 5722 5722 5721 5722 5723 5723 5724 5724 5723 5724 5725 5726 5724 5725 5725 5725 5725 5724 5723
5706 5708 5708 5709 5711 5713 5714 5715 5716 5715 5716 5716 5717 5718 5717 5717 5719 5719 5719 5719 5718 5718 5717 5717 5717 5716 5715 5715 5716 5715 5713 5710
5700 5702 5704 5705 5706 5707 5708 5709 5710 5711 5711 5711 5712 5712 5712 5713 5713 5712 5711 5712 5711 5710 5709 5707 5704 5705 5705 5706 5705 5703 5701 5700
5694 5695 5698 5699 5700 5701 5702 5703 5703 5704 5705 5706 5706 5706 5706 5707 5707 5707 5705 5705 5704 5702 5701 5700 5697 5696 5696 5696 5694 5693 5693 5690
5688 5688 5691 5692 5693 5694 5695 5695 5695 5697 5698 5698 5698 5698 5699 5699 5698 5698 5698 5698 5697 5695 5693 5692 5690 5689 5689 5688 5687 5685 5684 5682
5680 5682 5684 5685 5686 5687 5688 5688 5688 5688 5690 5691 5691 5691 5691 5691 5691 5690 5690 5689 5689 5687 5685 5684 5682 5682 5681 5679 5677 5676 5674 5673
5669 5673 5675 5676 5678 5680 5680 5680 5679 5679 5680 5682 5682 5683 5682 5681 5680 5679 5680 5679 5678 5677 5676 5674 5672 5671 5670 5668 5667 5665 5663 5662
5661 5662 5666 5669 5670 5671 5671 5671 5670 5671 5672 5672 5673 5672 5672 5671 5670 5670 5669 5668 5668 5667 5666 5664 5663 5661 5659 5658 5657 5656 5653 5651
5651 5652 5655 5658 5660 5661 5662 5662 5663 5662 5663 5663 5664 5663 5662 5661 5660 5660 5659 5657 5656 5655 5653 5653 5653 5652 5649 5648 5646 5643 5641 5638